#timestamp,LO_Frequency,Hit,StdDev 
1508018415.6,286047000.9,N
1508018435.4,286047003.7,N
1508018455.3,286047007.0,N
1508018475.1,286047010.3,Y
1508018495.8,286047008.7,P
1508018515.7,286047009.1,P
1508018535.5,286047009.2,P
1508018555.3,286047003.3,N
1508018575.2,286047004.7,N
1508018595.0,286047007.5,N
1508018595.9,286047007.5,Y
1508018615.7,286046999.5,P
1508018635.6,286046999.5,N
1508018655.4,286046998.0,N
1508018675.2,286046997.7,N
1508018695.1,286046996.3,N
1508018696.0,286046996.3,N
1508018715.8,286046993.8,N
1508018735.6,286046992.2,N
1508018755.5,286046994.4,N
1508018775.3,286046994.2,N
1508018795.1,286046992.7,N
1508018815.9,286046991.9,N
1508018835.7,286046992.1,N
1508018855.5,286046994.4,N
1508018875.4,286046992.1,N
1508018895.2,286046992.6,N
1508018915.0,286046992.7,N
1508018915.9,286046992.7,N
1508018935.7,286046990.3,N
1508018955.6,286046993.0,N
1508018975.4,286046992.1,N
1508018995.2,286046997.0,N
1508019015.1,286046993.9,N
1508019016.0,286046993.9,N
1508019035.8,286046999.2,N
1508019055.6,286046996.5,N
1508019075.5,286046997.4,N
1508019095.3,286046995.5,N
1508019115.1,286046991.9,N
1508019135.9,286046989.3,Y
1508019155.7,286046994.3,P
1508019175.5,286046990.5,P
1508019195.4,286046990.4,P
1508019215.2,286046989.0,Y
1508019235.0,286046999.6,P
1508019235.9,286046999.6,N
1508019255.8,286046995.7,N
1508019275.6,286046994.4,N
1508019295.4,286046993.5,N
1508019315.3,286046992.4,N
1508019335.1,286046990.5,Y
1508019336.0,286046990.5,P
1508019355.8,286046993.8,N
1508019375.7,286046995.2,N
1508019395.5,286046995.7,N
1508019415.3,286046994.5,N
1508019435.2,286046993.8,Y
1508019455.9,286046998.8,P
1508019475.7,286046997.5,N
1508019495.7,286046997.2,N
1508019515.5,286046996.8,N
1508019535.3,286046998.4,N
1508019555.2,286046998.0,N
1508019575.9,286046997.5,N
1508019595.7,286046995.1,Y
1508019615.6,286047000.9,P
1508019635.4,286047000.8,N
1508019655.2,286046998.6,N
1508019675.1,286046997.2,N
1508019676.0,286046997.2,N
1508019695.8,286046995.3,N
1508019715.6,286047001.2,N
1508019735.5,286047001.8,N
1508019755.3,286047004.3,N
1508019775.1,286047003.0,N
1508019795.8,286047005.1,N
1508019815.7,286047005.1,N
1508019835.5,286047005.1,N
1508019855.3,286047002.8,N
1508019875.2,286047000.8,N
1508019895.9,286047003.0,N
1508019915.7,286047006.8,N
1508019935.6,286047011.0,Y
1508019955.4,286047013.2,P
1508019975.2,286047016.6,N
1508019995.1,286047017.9,N
1508019996.0,286047017.9,N
1508020015.8,286047014.9,N
1508020035.6,286047013.3,N
1508020055.5,286047013.3,N
1508020075.3,286047017.0,Y
1508020095.1,286047006.9,P
1508020115.9,286047008.1,N
1508020135.7,286047006.8,N
1508020155.5,286047006.7,N
1508020175.4,286047006.4,N
1508020195.2,286047007.7,Y
1508020215.0,286046998.3,P
1508020215.9,286046998.3,N
1508020235.8,286046996.7,N
1508020255.6,286046997.0,N
1508020275.4,286046994.9,N
1508020295.2,286046999.2,N
1508020315.1,286046995.6,N
1508020316.0,286046995.6,N
1508020335.8,286046999.6,N
1508020355.6,286047002.2,N
1508020375.5,286047002.4,N
1508020395.3,286047000.0,N
1508020415.1,286046996.9,N
1508020435.9,286047001.0,N
1508020455.7,286046998.4,N
1508020475.5,286046999.2,N
1508020495.4,286047001.9,N
1508020515.2,286047002.9,N
1508020535.0,286047007.9,N
1508020535.9,286047007.9,N
1508020555.8,286047009.0,N
1508020575.6,286047006.4,N
1508020595.4,286047008.8,N
1508020615.2,286047006.9,N
1508020635.1,286047004.7,N
1508020636.0,286047004.7,N
1508020655.8,286047003.6,N
1508020675.6,286047005.6,N
1508020695.5,286047003.9,N
1508020715.3,286047004.3,N
1508020735.1,286047004.3,N
1508020755.9,286047000.2,N
1508020775.7,286047004.2,N
1508020795.5,286047002.3,N
1508020815.4,286047005.8,N
1508020835.2,286047001.8,N
1508020855.0,286047001.7,N
1508020855.9,286047001.7,N
1508020875.8,286047004.3,N
1508020895.6,286047000.4,N
1508020915.4,286047001.1,N
1508020935.2,286047004.1,N
1508020955.1,286047001.9,N
1508020956.0,286047001.9,N
1508020975.8,286047000.5,N
1508020995.6,286046995.0,N
1508021015.5,286046995.8,N
1508021035.3,286046991.1,N
1508021055.1,286046988.0,Y
1508021075.9,286046983.2,P
1508021095.7,286046982.6,N
1508021115.5,286046981.2,N
1508021135.4,286046981.4,N
1508021155.2,286046978.9,N
1508021175.0,286046980.4,N
1508021175.9,286046980.4,N
1508021195.8,286046978.4,N
1508021215.6,286046979.7,N
1508021235.4,286046980.1,N
1508021255.3,286046978.9,Y
1508021275.1,286046996.9,P
1508021295.8,286046996.1,N
1508021315.7,286046993.5,N
1508021335.5,286046992.1,N
1508021355.3,286046996.0,N
1508021375.2,286046993.5,N
1508021395.9,286046995.6,N
1508021415.7,286046994.0,N
1508021435.6,286046995.7,N
1508021455.4,286046996.0,N
1508021475.2,286046993.5,N
1508021495.0,286046993.5,N
1508021495.9,286046993.5,N
1508021515.8,286046993.4,N
1508021535.6,286046995.4,N
1508021555.4,286046997.6,N
1508021575.3,286046995.2,N
1508021595.1,286046996.2,N
1508021615.8,286046994.3,N
1508021635.7,286046994.6,N
1508021655.5,286046994.3,N
1508021675.3,286046997.6,N
1508021695.2,286046995.3,N
1508021715.9,286046995.5,N
1508021735.7,286046995.4,N
1508021755.6,286046994.0,N
1508021775.4,286046988.0,Y
1508021795.2,286046994.9,P
1508021815.1,286047005.0,P
1508021816.0,286047005.0,N
1508021835.8,286047010.1,N
1508021855.6,286047013.7,N
1508021875.5,286047012.5,N
1508021895.3,286047014.6,N
1508021915.1,286047014.8,N
1508021935.8,286047020.3,N
1508021955.7,286047021.9,N
1508021975.5,286047022.1,N
1508021995.3,286047025.1,N
